Location: Hines Observatory
(31.5604°N, 83.5172°W)
Time: 07:16:11
(UTC-05:00)

Daily predictions for brighter satellites

Satellite Brightness Start Highest point End
(mag) Time Altitude Azimuth Time Altitude Azimuth Time Altitude Azimuth
COSMOS 2455 3.6 17:49:55 10° SW 17:55:46 56° WNW 18:01:42 10° NNE
Okean 1-7 4.2 17:55:57 10° SE 17:59:19 22° E 18:02:41 10° NE
Cosmos 1816 Rocket 4.5 17:53:25 10° N 17:59:31 68° E 18:05:38 10° SSE
Meteor 1-26 Rocket 4.2 17:54:39 10° S 18:00:16 84° E 18:05:50 10° N
Aureole 3 4.4 17:55:37 10° N 18:00:36 79° W 18:06:57 10° S
USA 234 3.4 17:54:27 10° NE 18:00:57 66° SE 18:07:25 10° SSW
Cosmos 1833 Rocket 4.2 18:01:00 10° NNE 18:04:09 15° ENE 18:07:17 10° E
CZ-4 R/B 1.5 18:01:31 10° SSE 18:05:16 46° ENE 18:08:58 10° N
Cosmos 2278 Rocket 2.3 17:59:37 10° SSW 18:05:17 84° WNW 18:11:00 10° NNE
Cosmos 841 Rocket 4.2 18:00:54 10° N 18:05:34 31° ENE 18:10:11 10° SE
Cosmos 1486 Rocket 4.0 18:01:36 10° S 18:06:46 78° ESE 18:12:00 10° NNE
Cosmos 1633 4.1 18:04:25 10° NE 18:06:56 17° ENE 18:09:27 10° ESE
MTI 4.2 18:05:34 10° NNE 18:08:39 42° E 18:11:44 10° S
GPS 2-05 Rocket1 3.4 18:11:43 10° SW 18:14:41 39° SSE 18:17:13 14° E
CORIOLIS 4.1 18:09:23 10° SSE 18:14:48 74° ENE 18:20:15 10° N
YAOGAN 1 2.8 18:13:38 10° SSE 18:17:47 47° ENE 18:21:56 10° N
BREEZE M DEB (TANK) 4.3 18:08:30 10° NW 18:21:05 71° SW 18:24:42 10° SE
COSMO-SKYMED 1 2.7 18:17:42 10° NNE 18:21:58 55° E 18:26:12 10° S
SPOT 3 Rocket 4.2 18:17:52 10° SE 18:22:24 31° ENE 18:26:57 10° N
Cosmos 1484 Rocket 3.3 18:19:19 10° S 18:23:05 61° W 18:26:56 10° NNW
Cosmos 1354 Rocket 4.2 18:18:05 10° S 18:23:12 52° ESE 18:28:19 10° NNE
Tsikada Rocket 4.5 18:17:18 10° NNW 18:23:22 64° W 18:29:28 10° S
OAO 3 Rocket 4.0 18:18:47 10° SW 18:23:23 41° SSE 18:27:02 15° E
Cosmos 304 Rocket 3.7 18:20:24 10° N 18:25:11 65° ENE 18:29:55 10° SSE
BREEZE-M DEB (TANK) 3.7 18:24:09 10° W 18:25:53 20° NNW 18:27:47 10° NNE
Cosmos 1606 2.6 18:22:12 10° S 18:25:55 61° E 18:29:39 10° NNE
Meteor 1-28 Rocket 4.1 18:22:39 10° N 18:26:14 49° WNW 18:29:49 10° SSW
USA 116 4.3 18:21:59 10° N 18:26:16 63° WNW 18:30:01 10° SSW
CZ-2C R/B 4.2 18:23:28 10° N 18:27:54 61° WNW 18:32:24 10° SSW
Cosmos 2221 Rocket 3.8 18:25:44 10° SSE 18:29:57 47° E 18:34:11 10° NNE
EO 1 Del DPAF 3.1 18:32:46 10° NNE 18:36:36 86° E 18:40:25 10° SSW
Meteor 2-6 Rocket 4.2 18:32:36 10° S 18:37:52 58° E 18:43:16 10° NNE
Cosmos 1703 Rocket 3.8 18:35:02 10° S 18:39:29 75° W 18:43:57 10° N
Cosmos 1782 2.9 18:38:20 10° S 18:42:22 80° W 18:46:23 10° N
ERBS 2.1 18:41:18 10° NW 18:44:43 77° NE 18:47:25 15° SE
Meteor 1-25 Rocket 4.4 18:42:19 10° N 18:48:10 80° W 18:53:56 10° S
Meteor 1-20 Rocket 4.2 18:44:42 10° N 18:50:15 84° W 18:55:42 10° S
Cosmos 2082 Rocket 2.6 18:45:13 10° N 18:50:27 37° ENE 18:55:38 10° SE
ALOS 2.3 18:47:48 10° SSE 18:52:19 53° ENE 18:56:53 10° N
METEOR-M 4.2 18:49:24 10° S 18:54:44 83° WSW 19:00:06 10° NNW
Cosmos 1464 Rocket 3.9 18:48:52 10° S 18:54:58 86° E 19:01:08 10° N
Okean 2 Rocket 3.3 18:51:35 10° N 18:55:56 45° E 19:00:15 10° SSE
Tiangong 1 2.4 18:54:30 10° SSW 18:55:59 22° S 18:55:59 22° S
Cosmos 405 Rocket 2.5 18:53:11 10° S 18:57:00 70° E 18:58:57 27° NNE
BREEZE-M DEB (TANK) 2.4 18:55:01 10° NW 19:00:55 80° SW 19:02:15 34° SE
Thor Agena Rocket 3.8 18:59:06 29° NE 19:01:12 44° E 19:06:05 10° S
ERS-2 3.0 18:58:44 10° S 19:02:18 52° WSW 19:05:55 10° NNW
Meteor 1-27 Rocket 3.8 18:58:49 10° S 19:04:36 65° E 19:10:28 10° NNE
BREEZE-M R/B 3.7 19:20:33 10° NW 19:22:52 40° N 19:22:52 40° N
SL-27 R/B 4.0 19:21:57 10° NW 19:25:02 34° WSW 19:28:06 10° SSW
IUS-13 SRM-1 3.7 19:25:52 10° WSW 19:26:55 24° SW 19:26:55 24° SW
FENGYUN 3A 4.1 19:27:09 10° S 19:32:30 61° W 19:37:51 10° NNW
Cosmos 968 Rocket 3.5 19:30:59 10° SSW 19:36:06 77° WNW 19:37:11 56° N
CZ-4C R/B 3.7 19:30:36 10° NNW 19:35:39 33° NNE 19:35:39 33° NNE
Meteor 2-20 Rocket 4.2 19:31:49 10° N 19:37:54 73° E 19:43:56 10° SSE
Cosmos 540 Rocket 4.0 19:37:04 10° NNW 19:42:08 57° WSW 19:47:08 10° S
Cosmos 2369 Rocket 3.9 19:37:19 10° S 19:39:08 20° SSE 19:39:08 20° SSE
Cosmos 1833 Rocket 3.0 19:42:55 10° NNW 19:48:29 62° WSW 19:53:32 12° S
Meteor 1-11 Rocket 3.8 19:42:41 10° NNW 19:48:31 76° W 19:54:10 10° S
USA 229 DEB 4.4 20:24:33 10° SW 20:30:03 49° W 20:30:03 49° W
USA 229 4.4 20:24:39 10° SW 20:30:06 49° W 20:30:06 49° W
Cosmos 2082 Rocket 4.3 20:29:54 10° NW 20:34:14 23° W 20:38:09 11° SSW
